Location: Casco Millpond
(44.5581°N, 87.6111°W)
Time: 22:30:15
(UTC+00:00)

Cosmos 332 Rocket - Pass Details

Date: 16 January 2026
Orbit: 672 x 693 km, 74.0° (Epoch: 11 February)

Event Time Altitude Azimuth Distance (km) Brightness Sun altitude
Rises 23:01:15 0° 344° (NNW) 3,041 7.0 -4.5°
Reaches altitude 10° 23:03:39 10° 351° (N) 2,125 6.2 -4.9°
Maximum altitude 23:08:14 45° 64° (ENE) 930 4.1 -5.7°
Drops below altitude 10° 23:12:49 10° 137° (SE) 2,123 6.1 -6.4°
Sets 23:15:12 0° 144° (SE) 3,038 7.0 -6.8°
